NOAA 16 DEB

Satellite information

Favourite Embed

Satellite Type and Status

DEBRISIN ORBIT

Key statistics

Satellite NOAA 16 DEB at a glance.

Uptime

9109

Days in orbit

Revolutions

≈ 14.3

Per day

Orbit

SSO

Sun Synchronous Orbit

Inclination

99.0

Latest

Satellite identification and parameters

Extended collection of information and parameters for NOAA 16 DEB.

Object identification

Identified? True

Debris? True

Object name: NOAA 16 DEB

International designator: 2000-055PZ

Object number (NORAD): 42333

Object ID (CCSDS): 42333

Country: UNITED STATES OF AMERICA (US)

Current information (Y/N): Y

RCS size: SMALL

Orbital parameters

Period: 101.021 minutes

Inclination: 98.956 deg

SMA: 7185.136 km

Apoapsis: 817.159 km

Periapsis: 796.842 km

RAAN: 357.6649 deg

Eccentricy: 0.00141382

Argument of periapsis: 353.115 deg

Mean anomaly: 6.9833 deg

Mean motion: 14.25444434 rev/day

Mean motion (dot): 0.00006156 rev/day2

B* drag term: 0.0026227291 1/REarth

Two-line elements (TLE)

Creation date: Aug. 29, 2025, 9:54 a.m.

Reference frame: TEME

Reference center: EARTH

Epoch: Aug. 29, 2025, 3:50 a.m. UTC

TLE line 0: 0 NOAA 16 DEB

TLE line 1: 1 42333U 00055PZ 25241.16005411 .00006156 00000-0 26227-2 0 9996

TLE line 2: 2 42333 98.9560 357.6649 0014138 353.1150 6.9833 14.25444434488340

Live tracking on map

Real-time ground track for satellite NOAA 16 DEB.

In-orbit conjunctions

A list of the most updated potential collisions computed for object NOAA 16 DEB.

Target Orbit TCA Probability of collision Miss distance Type
FASAT B SSO 2025-05-02 19:58:30 0.0001879357 861.0 (m) PAYLOAD
RADCAL LEO 2024-08-27 11:52:19 0.0002773255 708.0 (m) PAYLOAD

Associated space launch

The NOAA K, L and M POES satellites begin the fifth generation of improved environmental monitoring in support of NOAA missions. The instrument payload has significant improvements and additions/deletions. The instrument changes have effected the spacecraft subsystems and data formats.

NOAA 16 DEB was lifted into orbit during the mission ‘Titan II SLV | NOAA 16’, on board a Titan II SLV space rocket.

The launch took place on Sept. 21, 2000, 10:22 a.m. from Space Launch Complex 4W.

For more information about the launch, click the button.

Launch to space Titan II SLV | NOAA 16
Titan II SLV | NOAA 16

Agency: N/A

Status: Launch Successful

Launch date: Sept. 21, 2000, 10:22 a.m. UTC

Rocket: Titan II SLV

Launch pad: Space Launch Complex 4W

Location: Vandenberg SFB, CA, USA

...

Latest news about this satellite

There are no fresh news available about this satellite. Check back as we update our databases every day.


Newsletter sign-up

Weekly statistics, charts and insights to help you stay on top of the space industry.